Topeka, KS

4:23 AM CST on December 13, 2017 (GMT -0600)
Billard Municipal

Weather History for KTOP - August, 2013

Change the Weather History Date:

Sunday, August 11, 2013

  Actual Average Record
Temperature  
Mean Temperature 75 °F 78 °F  
Max Temperature 87 °F 89 °F 110 °F (1934)
Min Temperature 63 °F 67 °F 51 °F (2004)
Degree Days  
Heating Degree Days 0 0  
Month to date heating degree days 0 0  
Since 1 June heating degree days 5 8  
Since 1 July heating degree days 0 0  
Cooling Degree Days 10 13  
Month to date cooling degree days 122 152  
Year to date cooling degree days 1028 994  
Since 1 June cooling degree days 883 868  
Growing Degree Days 25 (Base 50)    
Moisture  
Dew Point 65 °F    
Average Humidity 71    
Maximum Humidity 93    
Minimum Humidity 48    
Precipitation  
Precipitation 0.00 in 0.13 in 2.09 in (1941)
Month to date precipitation 4.08 1.47  
Year to date precipitation 23.34 23.80  
Snow  
Snow 0.00 in 0.00 in 0.00 in ()
Month to date snowfall 0.0 0.0  
Year to date snowfall 24.2 11.3  
Since 1 July snowfall 0.0 0.0  
Snow Depth 0.00 in    
Sea Level Pressure  
Sea Level Pressure 30.07 in    
Wind  
Wind Speed 4 mph (SE)    
Max Wind Speed 10 mph    
Max Gust Speed 14 mph    
Visibility 10 miles    
Events      
T = Trace of Precipitation, MM = Missing Value Source: NWS Daily Summary

Daily Weather History Graph

Daily Weather History Graph

Search for Another Location

Airport or City:

Trip Planner

Search our weather history database for the weather conditions in past years. The results will help you decide how hot, cold, wet, or windy it might be!

Date:

Astronomy

Aug. 11, 2013 Rise Set
Actual Time 6:32 AM CDT 8:22 PM CDT
Civil Twilight 6:03 AM CDT 8:51 PM CDT
Nautical Twilight 5:28 AM CDT 9:25 PM CDT
Astronomical Twilight 4:50 AM CDT 10:03 PM CDT
Moon 11:18 AM CDT (8/11) 10:41 PM CDT (8/11)
Length of Visible Light 14h 47m
Length of Day
13h 49m
Waxing Crescent, 22% of the Moon is Illuminated
Aug 11
Waxing Crescent
Aug 14
First Quarter
Aug 20
Full
Aug 28
Last Quarter
Sep 5
New

Hourly Weather History & Observations

Time (CDT) Temp. Heat Index Dew Point Humidity Pressure Visibility Wind Dir Wind Speed Gust Speed Precip Events Conditions
12:53 AM 68.0 °F - 63.0 °F 84% 30.12 in 10.0 mi Calm Calm - N/A   Clear
1:53 AM 64.9 °F - 61.0 °F 87% 30.13 in 9.0 mi Calm Calm - N/A   Clear
2:53 AM 64.9 °F - 61.0 °F 87% 30.12 in 10.0 mi Calm Calm - N/A   Clear
3:53 AM 64.9 °F - 60.1 °F 84% 30.12 in 10.0 mi Calm Calm - N/A   Clear
4:53 AM 64.0 °F - 60.1 °F 87% 30.11 in 10.0 mi Calm Calm - N/A   Clear
5:53 AM 63.0 °F - 60.1 °F 90% 30.10 in 8.0 mi Calm Calm - N/A   Clear
6:53 AM 63.0 °F - 60.1 °F 90% 30.11 in 7.0 mi Calm Calm - N/A   Clear
7:53 AM 66.9 °F - 63.0 °F 87% 30.10 in 9.0 mi Calm Calm - N/A   Clear
8:53 AM 73.0 °F - 63.0 °F 71% 30.10 in 10.0 mi East 3.5 mph - N/A   Clear
9:53 AM 75.9 °F - 63.0 °F 64% 30.10 in 10.0 mi SSE 8.1 mph - N/A   Clear
10:53 AM 79.0 °F - 64.9 °F 62% 30.11 in 10.0 mi ESE 5.8 mph - N/A   Clear
11:53 AM 82.0 °F 84.5 °F 66.9 °F 60% 30.10 in 10.0 mi South 5.8 mph - N/A   Clear
12:53 PM 82.9 °F 85.4 °F 66.9 °F 58% 30.09 in 10.0 mi SSE 8.1 mph - N/A   Partly Cloudy
1:53 PM 84.9 °F 86.6 °F 64.9 °F 51% 30.07 in 10.0 mi South 8.1 mph - N/A   Clear
2:53 PM 86.0 °F 87.6 °F 64.9 °F 49% 30.06 in 10.0 mi SSE 9.2 mph - N/A   Partly Cloudy
3:53 PM 86.0 °F 87.6 °F 64.9 °F 49% 30.05 in 10.0 mi South 5.8 mph - N/A   Scattered Clouds
4:53 PM 84.9 °F 87.1 °F 66.0 °F 53% 30.04 in 10.0 mi SE 6.9 mph - N/A   Clear
5:53 PM 84.9 °F 87.1 °F 66.0 °F 53% 30.02 in 10.0 mi South 5.8 mph - N/A   Clear
6:53 PM 82.9 °F 85.8 °F 68.0 °F 60% 30.00 in 10.0 mi SSE 4.6 mph - N/A   Clear
7:53 PM 81.0 °F 83.8 °F 68.0 °F 65% 29.99 in 10.0 mi SSE 4.6 mph - N/A   Clear
8:53 PM 78.1 °F - 68.0 °F 71% 30.00 in 10.0 mi SSE 3.5 mph - N/A   Clear
9:53 PM 75.0 °F - 69.1 °F 82% 30.02 in 10.0 mi Calm Calm - N/A   Clear
10:53 PM 73.0 °F - 69.1 °F 87% 30.03 in 10.0 mi NE 3.5 mph - N/A   Clear
11:53 PM 73.0 °F - 68.0 °F 84% 30.02 in 10.0 mi ENE 3.5 mph - N/A   Clear